Theta_e
351 350 350 349 348 347 347 347 347 347 348 351 350 350 350 352 353 351 348 347 350 348 348 349 352 352 353 354 354 354 352 351 350
351 351 350 349 348 347 347 348 348 349 349 352 351 351 352 353 353 353 349 350 352 350 351 350 351 352 353 355 353 354 351 350 350
347 349 350 350 349 348 346 346 348 350 350 352 352 351 352 353 353 353 353 351 352 351 350 351 352 353 354 350 350 352 350 351 350
343 345 346 348 348 348 348 346 348 349 350 351 353 352 351 351 352 352 353 351 352 350 349 349 349 351 354 351 350 349 351 351 350
348 348 349 350 349 348 348 348 348 348 350 351 351 351 352 351 352 352 352 352 351 352 349 349 351 353 353 353 353 353 351 350 349
349 349 349 350 352 351 349 348 349 348 349 350 350 351 352 351 353 353 352 352 353 351 352 352 352 352 350 349 351 351 350 351 352
349 349 350 352 352 352 350 349 349 350 350 351 352 351 352 351 352 353 352 352 354 353 353 353 352 353 350 349 349 351 351 351 351
348 350 352 353 352 351 351 350 350 351 351 349 350 349 351 351 352 353 353 353 354 352 353 353 352 353 351 350 351 351 353 351 352
348 352 352 351 351 351 351 350 351 351 352 352 350 350 351 354 355 355 354 355 354 355 354 352 352 353 351 351 350 349 346 347 351
348 349 350 350 349 347 346 350 349 349 350 351 350 348 351 352 353 351 352 353 353 354 352 350 351 352 352 352 353 345 347 347 349
347 348 349 350 348 348 349 347 347 347 349 348 350 349 349 349 349 347 345 350 351 350 351 352 352 353 352 350 345 344 344 344 350
346 347 345 345 345 345 346 347 347 346 343 342 345 347 347 347 347 346 347 346 346 345 345 344 345 345 345 344 337 340 341 343 347
342 343 344 343 342 342 343 342 344 344 343 343 341 341 343 342 342 341 343 343 343 342 341 340 339 338 337 336 336 340 341 341 343
339 340 340 339 339 341 340 337 338 338 336 336 338 340 341 340 340 342 342 342 341 340 339 338 335 333 331 332 334 336 337 338 339
339 339 338 339 337 338 340 339 334 336 336 335 337 334 335 338 341 341 340 340 338 335 335 332 328 328 327 328 330 332 335 335 336
340 337 337 337 336 336 339 340 337 335 334 334 335 334 334 334 335 334 338 335 332 331 329 327 325 326 325 325 325 328 331 332 331
336 337 336 335 335 336 335 337 338 336 335 333 332 330 329 330 331 330 329 329 328 328 327 324 325 327 328 327 325 324 325 325 326
337 336 335 336 334 334 333 334 334 333 332 333 331 329 329 327 328 326 327 326 328 329 326 325 326 327 328 327 323 323 324 328 328
336 337 336 336 336 336 334 334 333 332 332 330 331 330 330 328 326 326 327 326 323 326 326 324 322 324 324 321 318 318 319 320 322
336 336 336 336 336 336 335 335 335 332 331 330 330 329 329 328 329 328 326 325 325 323 324 321 320 321 319 319 319 317 314 314 315
Wind_Speed
2 10 14 16 17 19 23 23 23 23 23 22 22 21 20 17 15 12 12 11 10 11 7 9 7 9 8 7 6 5 4 4 4
4 6 10 16 19 22 23 24 26 26 25 23 22 22 20 19 17 15 12 10 10 9 7 9 9 9 9 7 7 7 6 6 4
4 3 5 10 14 22 24 24 24 26 26 25 24 21 20 19 18 16 14 11 10 9 6 7 9 10 7 7 8 9 8 6 6
2 4 5 5 8 17 23 23 19 25 25 24 23 23 21 19 18 18 16 13 12 11 9 8 10 9 6 7 7 7 8 6 5
4 6 7 7 8 11 19 24 20 21 20 22 24 23 21 20 18 18 16 14 13 12 12 10 10 9 10 10 7 6 7 7 5
4 5 7 5 6 10 14 20 17 19 20 21 21 22 22 20 19 19 18 16 14 14 13 12 10 9 8 7 5 7 9 9 7
6 7 6 5 4 6 10 13 17 18 18 19 17 20 20 20 20 18 18 16 14 13 13 12 12 10 9 9 9 9 10 9 8
6 7 6 4 4 3 7 11 14 18 16 18 20 20 19 19 19 18 17 17 15 14 13 13 13 12 11 10 10 11 8 8 7
5 3 4 3 3 5 5 9 12 15 18 17 19 21 17 14 16 17 17 16 14 16 13 13 13 13 12 12 12 14 13 11 9
3 3 3 2 0 1 5 6 8 13 15 16 16 19 12 14 15 14 14 12 12 14 12 13 14 14 13 12 10 13 11 10 7
3 2 4 2 3 2 3 6 9 8 13 13 14 15 14 13 13 13 13 10 10 9 9 11 11 11 10 9 10 9 9 7 5
0 5 4 7 7 6 4 1 7 10 10 10 8 10 13 11 11 12 11 10 9 9 9 10 11 11 10 9 7 10 9 7 5
6 6 7 9 10 10 9 7 7 9 8 8 10 12 12 12 13 15 14 13 13 11 12 14 14 13 12 11 6 8 8 7 4
6 7 8 9 11 11 12 16 21 18 18 15 11 8 10 15 15 16 18 15 14 13 14 13 13 10 8 6 5 3 5 6 5
8 10 10 8 11 9 8 11 22 15 12 8 13 14 16 10 16 15 16 18 18 17 17 16 13 12 11 9 7 4 5 5 5
10 11 9 9 12 7 4 8 11 12 8 9 11 11 14 14 14 18 15 15 15 15 14 15 14 12 11 12 10 10 9 8 8
8 10 14 12 11 5 8 9 8 11 11 13 16 16 17 18 19 16 15 17 18 19 17 14 12 9 10 11 11 11 11 12 12
10 11 15 8 5 5 10 13 14 13 12 17 15 14 14 15 13 13 17 15 12 10 8 7 8 8 10 10 8 9 10 9 9
8 12 12 10 9 10 9 12 12 11 11 12 14 14 13 14 14 14 13 14 16 15 13 11 10 10 10 14 16 14 13 13 15
12 12 12 12 10 11 10 11 11 10 10 12 11 13 13 13 13 14 14 13 14 15 15 11 12 15 16 15 15 13 14 15 14
Wind_Direction
204 221 212 220 217 214 220 211 202 202 197 198 198 202 207 210 214 220 223 217 264 217 211 201 197 210 206 203 202 207 222 222 244
210 203 222 223 225 216 209 209 204 204 203 202 201 204 203 210 212 216 224 230 214 225 237 213 205 215 212 209 226 227 215 219 224
204 232 242 235 227 227 211 209 208 207 206 202 204 207 205 208 213 214 220 231 232 230 240 241 217 214 221 219 238 246 228 226 235
268 284 276 252 238 226 218 217 209 209 210 208 206 204 209 208 210 212 214 223 226 225 230 233 242 242 233 228 222 233 226 239 253
289 304 302 281 248 221 213 215 204 206 204 211 213 207 206 210 209 205 210 219 222 220 227 229 233 236 238 248 248 227 213 229 256
281 298 293 292 248 226 217 215 209 206 207 214 217 208 202 205 208 207 210 215 218 222 221 222 227 235 244 242 249 245 230 244 241
286 297 299 303 264 223 215 220 196 212 214 209 208 201 204 203 207 212 216 217 219 223 226 227 221 217 225 241 247 245 233 231 243
276 293 300 296 281 229 213 211 215 207 204 200 197 196 207 210 209 211 216 217 218 222 225 227 228 227 227 231 234 236 231 248 257
268 296 272 277 275 298 259 224 219 214 202 189 189 194 208 200 203 206 210 221 213 224 219 227 233 233 231 228 235 238 245 247 262
259 276 305 277 176 232 248 234 198 211 199 184 176 181 184 198 190 188 191 207 212 228 221 229 233 236 233 229 219 240 242 244 247
229 258 8 145 94 96 153 158 164 167 160 165 158 161 174 177 174 179 184 180 199 212 216 216 217 214 205 190 210 227 219 184 185
79 74 82 74 72 53 37 176 185 165 148 146 161 165 178 177 178 174 176 183 180 191 188 186 190 188 169 169 171 169 163 149 178
107 120 101 83 68 64 52 55 97 112 114 155 179 187 183 180 180 182 180 178 172 166 164 165 163 156 161 156 160 189 196 183 175
104 105 99 95 71 62 77 98 94 88 86 71 84 187 204 192 186 187 192 182 183 174 167 157 149 147 135 128 147 158 185 174 150
132 120 100 79 82 58 100 105 108 96 90 97 89 85 82 133 176 186 188 188 181 176 169 157 140 128 108 93 86 114 130 156 153
142 124 102 67 70 73 83 119 118 111 117 125 122 117 104 97 105 129 150 151 140 134 134 123 117 106 102 96 92 93 98 115 130
118 113 97 54 18 44 115 136 121 105 103 109 116 111 113 118 114 114 124 128 134 129 116 109 111 128 114 101 93 86 93 95 104
117 115 88 127 134 109 132 138 132 130 136 129 112 109 108 105 109 111 113 110 102 102 107 101 120 116 117 118 115 131 128 139 126
137 129 141 141 144 142 132 125 124 129 136 134 128 124 123 120 116 114 117 118 102 103 103 95 103 109 110 109 108 104 108 111 111
140 135 149 154 162 140 135 130 133 138 137 137 132 128 123 126 132 129 127 126 120 113 99 93 98 110 111 110 105 100 99 100 104